Location: Aldenham
(51.6667°N, 0.3500°W)
Time: 12:17:16
(UTC+00:00)

Altair - Pass Details

Date: 20 February 2026
Orbit: 1502 x 1682 km, 47.2° (Epoch: 17 March)

Event Time Altitude Azimuth Distance (km) Brightness Sun altitude
Rises 06:13:05 0° 255° (WSW) 4,642 - -8.8°
Exits shadow 06:15:02 - 254° (WSW) 4,010 9.1 -8.5°
Reaches altitude 10° 06:16:05 10° 253° (WSW) 3,671 8.9 -8.4°
Maximum altitude 06:25:14 67° 173° (S) 1,650 7.8 -7.0°
Drops below altitude 10° 06:34:41 10° 94° (E) 3,793 11.4 -5.5°
Sets 06:37:50 0° 92° (E) 4,803 12.4 -5.0°
